QTR1183 OEJN-OTHH

Flight info

Callsign QTR1183
Flight time 1h 53m
Altitude 41000
Route EGREP T532 KODIS Y214 RAPMA DCT LADBO T142 LAEEB
Aircraft A359/H-SDE2E3GHIJ3J4J5LM1ORWXY/LB1D1

Departure

Time 2026-05-04 15:08
Airport King Abdulaziz International Airport (OEJN)

Arrival

Time 2026-05-04 17:01
Airport Hamad International Airport (OTHH)
Time Latitude Longitude Altitude Speed Heading
2026-05-04 14:30 21.67129 39.16893 37 ft 0 kts 168°
2026-05-04 14:53 21.67140 39.16891 36 ft 4 kts 172°
2026-05-04 14:53 21.67167 39.16889 34 ft 4 kts 184°
2026-05-04 14:54 21.67194 39.16892 33 ft 4 kts 188°
2026-05-04 14:54 21.67218 39.16893 33 ft 4 kts 146°
2026-05-04 14:54 21.67223 39.16895 33 ft 0 kts 75°
2026-05-04 14:58 21.67232 39.16918 35 ft 8 kts 68°
2026-05-04 14:58 21.67265 39.16987 36 ft 11 kts 55°
2026-05-04 14:58 21.67332 39.16999 36 ft 11 kts 329°
2026-05-04 14:59 21.67398 39.16949 36 ft 12 kts 332°
2026-05-04 14:59 21.67484 39.16911 36 ft 14 kts 339°
2026-05-04 14:59 21.67619 39.16857 36 ft 1 kts 339°
2026-05-04 15:00 21.67682 39.16832 36 ft 12 kts 338°
2026-05-04 15:00 21.67703 39.16760 36 ft 13 kts 255°
2026-05-04 15:00 21.67659 39.16634 36 ft 21 kts 250°
2026-05-04 15:01 21.67558 39.16339 36 ft 14 kts 249°
2026-05-04 15:01 21.67551 39.16320 36 ft 0 kts 249°
2026-05-04 15:03 21.67545 39.16302 36 ft 12 kts 249°
2026-05-04 15:03 21.67512 39.16203 36 ft 15 kts 248°
2026-05-04 15:04 21.67441 39.16168 37 ft 12 kts 166°
2026-05-04 15:04 21.67321 39.16213 37 ft 29 kts 160°
2026-05-04 15:04 21.67140 39.16285 38 ft 27 kts 160°
2026-05-04 15:04 21.66957 39.16355 38 ft 29 kts 160°
2026-05-04 15:05 21.66773 39.16426 38 ft 29 kts 160°
2026-05-04 15:05 21.66587 39.16500 38 ft 29 kts 160°
2026-05-04 15:05 21.66420 39.16566 37 ft 25 kts 160°
2026-05-04 15:05 21.66262 39.16629 37 ft 13 kts 159°
2026-05-04 15:06 21.66189 39.16628 37 ft 11 kts 217°
2026-05-04 15:06 21.66154 39.16553 37 ft 12 kts 248°
2026-05-04 15:06 21.66175 39.16476 36 ft 12 kts 316°
2026-05-04 15:07 21.66231 39.16446 36 ft 0 kts 340°
2026-05-04 15:07 21.66333 39.16406 39 ft 43 kts 340°
2026-05-04 15:07 21.66833 39.16210 45 ft 108 kts 340°
2026-05-04 15:07 21.67724 39.15858 93 ft 159 kts 339°
2026-05-04 15:08 21.68739 39.15456 910 ft 151 kts 338°
2026-05-04 15:08 21.69725 39.15046 1555 ft 159 kts 338°
2026-05-04 15:08 21.70813 39.14617 1892 ft 175 kts 339°
2026-05-04 15:08 21.72024 39.14149 2199 ft 195 kts 339°
2026-05-04 15:09 21.73386 39.13633 2426 ft 219 kts 339°
2026-05-04 15:09 21.74882 39.13044 2752 ft 237 kts 338°
2026-05-04 15:09 21.76457 39.12417 3320 ft 247 kts 339°
2026-05-04 15:10 21.79781 39.11102 4576 ft 262 kts 339°
2026-05-04 15:10 21.81458 39.10436 5074 ft 270 kts 339°
2026-05-04 15:10 21.85040 39.09014 5950 ft 269 kts 338°
2026-05-04 15:11 21.86790 39.08323 5996 ft 267 kts 338°
2026-05-04 15:11 21.88539 39.07632 6005 ft 269 kts 338°
2026-05-04 15:11 21.90300 39.06935 6005 ft 269 kts 338°
2026-05-04 15:11 21.92027 39.06142 6001 ft 271 kts 334°
2026-05-04 15:12 21.93743 39.05295 6001 ft 272 kts 334°
2026-05-04 15:12 21.95458 39.04454 6000 ft 270 kts 334°
2026-05-04 15:12 21.97171 39.03624 6001 ft 270 kts 334°
2026-05-04 15:12 21.98884 39.02800 5999 ft 268 kts 334°
2026-05-04 15:13 22.00585 39.01984 6004 ft 269 kts 334°
2026-05-04 15:13 22.02302 39.01165 6158 ft 271 kts 334°
2026-05-04 15:13 22.04029 39.00337 6652 ft 275 kts 334°
2026-05-04 15:13 22.05789 38.99491 7352 ft 277 kts 334°
2026-05-04 15:14 22.07549 38.98647 8147 ft 277 kts 333°
2026-05-04 15:14 22.09320 38.97798 8830 ft 282 kts 333°
2026-05-04 15:14 22.11123 38.96935 9585 ft 286 kts 334°
2026-05-04 15:14 22.12957 38.96061 10276 ft 291 kts 334°
2026-05-04 15:15 22.14963 38.95410 10608 ft 314 kts 349°
2026-05-04 15:15 22.17200 38.95630 10874 ft 337 kts 17°
2026-05-04 15:15 22.19285 38.96934 11166 ft 358 kts 37°
2026-05-04 15:16 22.23085 39.00653 12215 ft 374 kts 41°
2026-05-04 15:16 22.25019 39.02568 12737 ft 382 kts 41°
2026-05-04 15:16 22.28919 39.06507 12840 ft 385 kts 48°
2026-05-04 15:17 22.30306 39.08968 12815 ft 385 kts 70°
2026-05-04 15:17 22.31640 39.14541 12820 ft 384 kts 78°
2026-05-04 15:17 22.32232 39.17345 12821 ft 383 kts 78°
2026-05-04 15:18 22.32830 39.20144 12820 ft 382 kts 79°
2026-05-04 15:18 22.33432 39.22942 12823 ft 383 kts 78°
2026-05-04 15:18 22.34039 39.25743 12823 ft 382 kts 78°
2026-05-04 15:19 22.35252 39.31341 12834 ft 382 kts 78°
2026-05-04 15:19 22.35865 39.34166 12833 ft 382 kts 78°
2026-05-04 15:19 22.37069 39.39722 12834 ft 381 kts 79°
2026-05-04 15:20 22.37672 39.42508 12854 ft 382 kts 79°
2026-05-04 15:20 22.38275 39.45301 12856 ft 381 kts 78°
2026-05-04 15:20 22.38876 39.48083 12853 ft 380 kts 79°
2026-05-04 15:20 22.39480 39.50879 12875 ft 380 kts 79°
2026-05-04 15:21 22.40077 39.53644 12876 ft 380 kts 78°
2026-05-04 15:21 22.40682 39.56440 13048 ft 383 kts 79°
2026-05-04 15:21 22.41898 39.62077 14346 ft 387 kts 79°
2026-05-04 15:22 22.42513 39.64933 14882 ft 393 kts 78°
2026-05-04 15:22 22.43134 39.67815 15543 ft 394 kts 78°
2026-05-04 15:22 22.44394 39.73674 16652 ft 404 kts 77°
2026-05-04 15:23 22.45029 39.76623 17338 ft 406 kts 77°
2026-05-04 15:23 22.45708 39.79620 17879 ft 412 kts 74°
2026-05-04 15:23 22.46756 39.82493 18516 ft 413 kts 62°
2026-05-04 15:23 22.48352 39.85094 18936 ft 420 kts 48°
2026-05-04 15:24 22.52542 39.89504 20139 ft 422 kts 40°
2026-05-04 15:24 22.57035 39.93686 21252 ft 430 kts 39°
2026-05-04 15:25 22.59315 39.95799 21784 ft 434 kts 39°
2026-05-04 15:25 22.61612 39.97948 22324 ft 438 kts 39°
2026-05-04 15:25 22.63918 40.00127 22828 ft 443 kts 40°
2026-05-04 15:26 22.68583 40.04580 23833 ft 452 kts 40°
2026-05-04 15:26 22.70946 40.06844 24277 ft 456 kts 39°
2026-05-04 15:26 22.75761 40.11461 25072 ft 467 kts 39°
2026-05-04 15:27 22.78201 40.13802 25515 ft 471 kts 39°
2026-05-04 15:27 22.83159 40.18560 26362 ft 480 kts 39°
2026-05-04 15:28 22.88211 40.23411 27180 ft 489 kts 39°
2026-05-04 15:28 22.90766 40.25867 27599 ft 494 kts 39°
2026-05-04 15:28 22.95956 40.30859 28358 ft 503 kts 38°
2026-05-04 15:29 22.98581 40.33387 28750 ft 507 kts 38°
2026-05-04 15:30 23.09309 40.43730 30235 ft 524 kts 38°
2026-05-04 15:30 23.17557 40.51698 31216 ft 531 kts 38°
2026-05-04 15:31 23.23113 40.57074 31808 ft 538 kts 38°
2026-05-04 15:31 23.25748 40.59981 32096 ft 544 kts 47°
2026-05-04 15:32 23.31157 40.70992 32807 ft 559 kts 69°
2026-05-04 15:32 23.33903 40.78940 33340 ft 564 kts 70°
2026-05-04 15:33 23.36620 40.86985 33829 ft 569 kts 70°
2026-05-04 15:34 23.40772 40.99078 34842 ft 566 kts 70°
2026-05-04 15:34 23.42160 41.03094 35085 ft 567 kts 70°
2026-05-04 15:34 23.44937 41.11129 35694 ft 566 kts 70°
2026-05-04 15:35 23.47695 41.19131 36359 ft 563 kts 70°
2026-05-04 15:35 23.48603 41.21770 36567 ft 562 kts 70°
2026-05-04 15:35 23.50434 41.27100 36942 ft 561 kts 70°
2026-05-04 15:36 23.52704 41.33715 37438 ft 560 kts 70°
2026-05-04 15:36 23.54509 41.38982 37772 ft 560 kts 70°
2026-05-04 15:36 23.55429 41.41669 37938 ft 560 kts 70°
2026-05-04 15:37 23.56791 41.45650 38213 ft 560 kts 70°
2026-05-04 15:37 23.58147 41.49617 38473 ft 559 kts 70°
2026-05-04 15:37 23.59502 41.53587 38708 ft 558 kts 70°
2026-05-04 15:37 23.60853 41.57548 38911 ft 557 kts 70°
2026-05-04 15:38 23.62200 41.61499 39206 ft 554 kts 70°
2026-05-04 15:38 23.63537 41.65426 39427 ft 553 kts 70°
2026-05-04 15:38 23.64874 41.69359 39605 ft 552 kts 70°
2026-05-04 15:38 23.66211 41.73294 39751 ft 553 kts 70°
2026-05-04 15:39 23.68848 41.81191 40044 ft 553 kts 72°
2026-05-04 15:39 23.71347 41.89098 40449 ft 550 kts 72°
2026-05-04 15:40 23.72570 41.92998 40600 ft 550 kts 72°
2026-05-04 15:40 23.73825 41.96992 40744 ft 549 kts 72°
2026-05-04 15:40 23.75056 42.00882 40897 ft 549 kts 72°
2026-05-04 15:41 23.77697 42.08708 40945 ft 549 kts 70°
2026-05-04 15:41 23.80424 42.16552 40944 ft 549 kts 70°
2026-05-04 15:42 23.83111 42.24353 40946 ft 549 kts 70°
2026-05-04 15:42 23.85778 42.32176 40949 ft 549 kts 71°
2026-05-04 15:43 23.88414 42.39946 40948 ft 549 kts 71°
2026-05-04 15:43 23.91067 42.47777 40941 ft 551 kts 71°
2026-05-04 15:44 23.93725 42.55638 40939 ft 551 kts 71°
2026-05-04 15:44 23.96380 42.63501 40953 ft 551 kts 71°
2026-05-04 15:45 23.99029 42.71362 40951 ft 551 kts 71°
2026-05-04 15:45 24.01675 42.79230 40947 ft 551 kts 71°
2026-05-04 15:46 24.03569 42.87306 40951 ft 546 kts 88°
2026-05-04 15:46 24.03602 42.91434 40952 ft 539 kts 99°
2026-05-04 15:46 24.02980 42.95439 40962 ft 532 kts 109°
2026-05-04 15:47 24.01016 43.03227 40950 ft 531 kts 112°
2026-05-04 15:47 23.98856 43.10948 40937 ft 530 kts 112°
2026-05-04 15:48 23.96708 43.18654 40953 ft 530 kts 112°
2026-05-04 15:48 23.93537 43.30223 40946 ft 530 kts 112°
2026-05-04 15:49 23.91429 43.37940 40944 ft 530 kts 112°
2026-05-04 15:49 23.89315 43.45659 40937 ft 530 kts 112°
2026-05-04 15:50 23.87199 43.53363 40930 ft 529 kts 112°
2026-05-04 15:50 23.85080 43.61057 40920 ft 529 kts 112°
2026-05-04 15:51 23.82958 43.68749 40924 ft 528 kts 112°
2026-05-04 15:51 23.80836 43.76424 40908 ft 528 kts 112°
2026-05-04 15:52 23.78711 43.84093 40897 ft 528 kts 112°
2026-05-04 15:52 23.77202 43.91963 40898 ft 534 kts 101°
2026-05-04 15:53 23.76502 44.00048 40892 ft 535 kts 99°
2026-05-04 15:53 23.75932 44.08084 40887 ft 535 kts 98°
2026-05-04 15:54 23.75355 44.16181 40905 ft 535 kts 99°
2026-05-04 15:54 23.74753 44.24275 40889 ft 536 kts 99°
2026-05-04 15:55 23.74138 44.32373 40895 ft 535 kts 99°
2026-05-04 15:55 23.73518 44.40463 40894 ft 535 kts 99°
2026-05-04 15:56 23.72894 44.48554 40899 ft 534 kts 99°
2026-05-04 15:56 23.72270 44.56617 40901 ft 533 kts 99°
2026-05-04 15:57 23.71641 44.64675 40896 ft 533 kts 99°
2026-05-04 15:57 23.71009 44.72713 40893 ft 531 kts 99°
2026-05-04 15:58 23.70374 44.80748 40896 ft 531 kts 99°
2026-05-04 15:58 23.69734 44.88779 40895 ft 531 kts 99°
2026-05-04 15:59 23.69095 44.96810 40900 ft 532 kts 99°
2026-05-04 15:59 23.68442 45.04856 40878 ft 532 kts 99°
2026-05-04 16:00 23.67789 45.12881 40889 ft 530 kts 99°
2026-05-04 16:00 23.67134 45.20879 40892 ft 529 kts 99°
2026-05-04 16:01 23.66481 45.28875 40886 ft 529 kts 99°
2026-05-04 16:01 23.65817 45.36867 40876 ft 529 kts 99°
2026-05-04 16:02 23.65148 45.44870 40883 ft 529 kts 99°
2026-05-04 16:03 23.64140 45.56861 40859 ft 529 kts 99°
2026-05-04 16:03 23.63468 45.64833 40853 ft 527 kts 99°
2026-05-04 16:04 23.62794 45.72791 40855 ft 527 kts 99°
2026-05-04 16:04 23.61763 45.84729 40862 ft 527 kts 99°
2026-05-04 16:05 23.61073 45.92694 40850 ft 527 kts 99°
2026-05-04 16:06 23.60033 46.04622 40870 ft 527 kts 99°
2026-05-04 16:07 23.58637 46.20485 40875 ft 527 kts 99°
2026-05-04 16:08 23.57221 46.36364 40888 ft 526 kts 99°
2026-05-04 16:09 23.55435 46.56182 40885 ft 526 kts 99°
2026-05-04 16:10 23.53987 46.72006 40868 ft 524 kts 99°
2026-05-04 16:11 23.52524 46.87798 40851 ft 523 kts 99°
2026-05-04 16:12 23.50303 47.11483 40841 ft 524 kts 99°
2026-05-04 16:13 23.48805 47.27245 40833 ft 523 kts 99°
2026-05-04 16:14 23.47291 47.42996 40828 ft 523 kts 99°
2026-05-04 16:16 23.45379 47.62678 40818 ft 523 kts 99°
2026-05-04 16:17 23.43433 47.82420 40802 ft 523 kts 99°
2026-05-04 16:18 23.41997 47.96840 40797 ft 523 kts 99°
2026-05-04 16:19 23.40009 48.16582 40788 ft 524 kts 99°
2026-05-04 16:20 23.39167 48.36321 40780 ft 529 kts 76°
2026-05-04 16:22 23.45358 48.55231 40786 ft 531 kts 70°
2026-05-04 16:23 23.53066 48.77884 40780 ft 532 kts 70°
2026-05-04 16:25 23.60713 49.00640 40781 ft 532 kts 71°
2026-05-04 16:26 23.69603 49.27243 40785 ft 533 kts 71°
2026-05-04 16:28 23.75925 49.46267 40791 ft 533 kts 71°
2026-05-04 16:29 23.84745 49.72958 40796 ft 534 kts 71°
2026-05-04 16:31 23.91038 49.92110 40793 ft 534 kts 71°
2026-05-04 16:32 23.98550 50.15088 40793 ft 534 kts 71°
2026-05-04 16:33 24.03520 50.30365 39992 ft 532 kts 71°
2026-05-04 16:34 24.06010 50.38043 38445 ft 539 kts 70°
2026-05-04 16:34 24.07264 50.41914 37545 ft 540 kts 70°
2026-05-04 16:35 24.11022 50.53538 35166 ft 540 kts 70°
2026-05-04 16:35 24.14613 50.64678 32849 ft 544 kts 70°
2026-05-04 16:36 24.15867 50.68574 32191 ft 540 kts 70°
2026-05-04 16:36 24.18338 50.76266 31064 ft 531 kts 70°
2026-05-04 16:37 24.20739 50.83848 29905 ft 523 kts 70°
2026-05-04 16:37 24.21940 50.87599 29267 ft 519 kts 70°
2026-05-04 16:37 24.24320 50.94988 28132 ft 509 kts 70°
2026-05-04 16:38 24.26657 51.02277 27037 ft 499 kts 70°
2026-05-04 16:39 24.30042 51.12900 25412 ft 485 kts 70°
2026-05-04 16:39 24.32242 51.19814 24341 ft 476 kts 70°
2026-05-04 16:40 24.35695 51.25824 23305 ft 463 kts 45°
2026-05-04 16:40 24.40207 51.30713 22176 ft 450 kts 40°
2026-05-04 16:41 24.44765 51.35283 21131 ft 438 kts 40°
2026-05-04 16:41 24.51364 51.41967 19582 ft 424 kts 40°
2026-05-04 16:42 24.58853 51.46819 18030 ft 413 kts 25°
2026-05-04 16:43 24.63937 51.49625 16965 ft 404 kts 26°
2026-05-04 16:43 24.68913 51.52356 15940 ft 395 kts 25°
2026-05-04 16:43 24.71427 51.53644 15432 ft 391 kts 22°
2026-05-04 16:44 24.81223 51.58307 13421 ft 375 kts 17°
2026-05-04 16:45 24.86184 51.58255 12536 ft 357 kts 338°
2026-05-04 16:46 24.91776 51.53629 11737 ft 324 kts 319°
2026-05-04 16:46 24.95076 51.50607 10895 ft 297 kts 325°
2026-05-04 16:47 24.98757 51.48741 9546 ft 287 kts 338°
2026-05-04 16:47 25.01805 51.47415 8323 ft 280 kts 338°
2026-05-04 16:48 25.07150 51.45074 6242 ft 268 kts 338°
2026-05-04 16:48 25.08843 51.44334 5991 ft 260 kts 338°
2026-05-04 16:49 25.12234 51.42832 5992 ft 262 kts 338°
2026-05-04 16:49 25.15636 51.41328 5978 ft 258 kts 338°
2026-05-04 16:50 25.18916 51.41376 5727 ft 239 kts 27°
2026-05-04 16:50 25.20775 51.44362 5281 ft 243 kts 63°
2026-05-04 16:51 25.20839 51.48075 4906 ft 259 kts 114°
2026-05-04 16:51 25.19543 51.49527 4795 ft 265 kts 149°
2026-05-04 16:51 25.16141 51.51075 4569 ft 267 kts 158°
2026-05-04 16:52 25.12688 51.52543 4315 ft 265 kts 157°
2026-05-04 16:52 25.10967 51.53291 4197 ft 264 kts 157°
2026-05-04 16:53 25.07566 51.54785 3964 ft 262 kts 156°
2026-05-04 16:53 25.02501 51.57013 3598 ft 260 kts 156°
2026-05-04 16:54 25.00911 51.57981 3487 ft 257 kts 136°
2026-05-04 16:55 25.02011 51.63843 3016 ft 221 kts 16°
2026-05-04 16:55 25.04951 51.64709 2786 ft 215 kts 26°
2026-05-04 16:56 25.07270 51.66580 2546 ft 202 kts 35°
2026-05-04 16:56 25.10792 51.67046 2490 ft 173 kts 339°
2026-05-04 16:57 25.11918 51.66546 2468 ft 175 kts 340°
2026-05-04 16:57 25.14153 51.65561 2252 ft 163 kts 341°
2026-05-04 16:58 25.16973 51.64321 1692 ft 128 kts 340°
2026-05-04 16:58 25.17788 51.63962 1555 ft 126 kts 339°
2026-05-04 16:59 25.19442 51.63232 1229 ft 129 kts 339°
2026-05-04 17:00 25.22763 51.61765 621 ft 130 kts 338°
2026-05-04 17:00 25.25367 51.60618 122 ft 136 kts 340°
2026-05-04 17:01 25.26942 51.59923 31 ft 67 kts 338°
2026-05-04 17:01 25.27338 51.59821 33 ft 18 kts
2026-05-04 17:02 25.27410 51.59854 34 ft 0 kts 54°
2026-05-04 17:03 25.27407 51.59901 35 ft 10 kts 121°
2026-05-04 17:03 25.27255 51.59991 35 ft 15 kts 155°
2026-05-04 17:04 25.27071 51.60070 34 ft 9 kts 158°
2026-05-04 17:04 25.26911 51.60142 34 ft 17 kts 158°
2026-05-04 17:05 25.26659 51.60253 34 ft 22 kts 158°
2026-05-04 17:05 25.26351 51.60388 36 ft 25 kts 158°
2026-05-04 17:06 25.26069 51.60517 36 ft 13 kts 140°
2026-05-04 17:06 25.26064 51.60604 36 ft 13 kts 68°
2026-05-04 17:07 25.26141 51.60813 36 ft 17 kts 69°
2026-05-04 17:07 25.26169 51.60891 36 ft 14 kts 68°
2026-05-04 17:07 25.26139 51.60957 36 ft 8 kts 156°
2026-05-04 17:07 25.26097 51.60975 36 ft 2 kts 158°
2026-05-04 17:08 25.26092 51.60977 36 ft 0 kts 158°